| time (UTC) | temp F | wind direction | speed MPH | gust MPH | rain 1hr in | rain 24hr in | rain mn in | humidity % | barometer mb |
| 20260508172051 | 72 | 27 | 12.0 | 20.0 | 0.00 | 0.00 | 0.00 | 43 | 1012.5 |
| 20260508171554 | 72 | 311 | 12.0 | 20.0 | 0.00 | 0.00 | 0.00 | 43 | 1012.5 |
| 20260508171051 | 71 | 352 | 14.0 | 20.0 | 0.00 | 0.00 | 0.00 | 45 | 1012.5 |
| 20260508170548 | 71 | 16 | 7.0 | 21.0 | 0.00 | 0.00 | 0.00 | 44 | 1012.4 |
| 20260508170105 | 71 | 4 | 14.0 | 21.0 | 0.00 | 0.00 | 0.00 | 44 | 1012.5 |
| 20260508165547 | 71 | 337 | 14.0 | 21.0 | 0.00 | 0.00 | 0.00 | 45 | 1012.5 |
| 20260508165047 | 70 | 330 | 13.0 | 20.0 | 0.00 | 0.00 | 0.00 | 44 | 1012.6 |
| 20260508164553 | 70 | 7 | 12.0 | 20.0 | 0.00 | 0.00 | 0.00 | 47 | 1012.7 |
| 20260508164048 | 69 | 14 | 14.0 | 22.0 | 0.00 | 0.00 | 0.00 | 45 | 1012.7 |
| 20260508163551 | 70 | 1 | 16.0 | 22.0 | 0.00 | 0.00 | 0.00 | 45 | 1012.6 |
| 20260508163051 | 70 | 336 | 16.0 | 21.0 | 0.00 | 0.00 | 0.00 | 45 | 1012.6 |
| 20260508162547 | 70 | 32 | 14.0 | 22.0 | 0.00 | 0.00 | 0.00 | 46 | 1012.6 |
| 20260508162047 | 70 | 6 | 15.0 | 23.0 | 0.00 | 0.00 | 0.00 | 46 | 1012.6 |
| 20260508161554 | 69 | 34 | 14.0 | 23.0 | 0.00 | 0.00 | 0.00 | 48 | 1012.5 |
| 20260508161048 | 69 | 6 | 18.0 | 25.0 | 0.00 | 0.00 | 0.00 | 46 | 1012.5 |
| 20260508160548 | 70 | 11 | 18.0 | 25.0 | 0.00 | 0.00 | 0.00 | 45 | 1012.3 |
| 20260508160052 | 70 | 10 | 19.0 | 25.0 | 0.00 | 0.00 | 0.00 | 44 | 1012.2 |
| 20260508155548 | 70 | 7 | 14.0 | 22.0 | 0.00 | 0.00 | 0.00 | 44 | 1012.2 |
| 20260508155048 | 70 | 23 | 15.0 | 22.0 | 0.00 | 0.00 | 0.00 | 46 | 1012.2 |
| 20260508154551 | 70 | 331 | 16.0 | 22.0 | 0.00 | 0.00 | 0.00 | 46 | 1012.3 |
| 20260508154048 | 70 | 359 | 16.0 | 22.0 | 0.00 | 0.00 | 0.00 | 47 | 1012.4 |
| 20260508153548 | 70 | 335 | 16.0 | 22.0 | 0.00 | 0.00 | 0.00 | 47 | 1012.3 |
| 20260508153056 | 69 | 349 | 16.0 | 20.0 | 0.00 | 0.00 | 0.00 | 50 | 1012.3 |
| 20260508152549 | 68 | 338 | 11.0 | 19.0 | 0.00 | 0.00 | 0.00 | 52 | 1012.3 |
| 20260508152048 | 67 | 322 | 13.0 | 18.0 | 0.00 | 0.00 | 0.00 | 52 | 1012.4 |
| 20260508151556 | 67 | 345 | 14.0 | 18.0 | 0.00 | 0.00 | 0.00 | 51 | 1012.5 |
| 20260508151048 | 67 | 326 | 12.0 | 17.0 | 0.00 | 0.00 | 0.00 | 52 | 1012.3 |
| 20260508150548 | 66 | 4 | 12.0 | 17.0 | 0.00 | 0.00 | 0.00 | 52 | 1012.3 |
| 20260508150056 | 66 | 332 | 11.0 | 17.0 | 0.00 | 0.00 | 0.00 | 53 | 1012.1 |
| 20260508145548 | 66 | 358 | 11.0 | 17.0 | 0.00 | 0.00 | 0.00 | 54 | 1012.2 |
| 20260508145048 | 66 | 360 | 11.0 | 16.0 | 0.00 | 0.00 | 0.00 | 53 | 1012.1 |
| 20260508144554 | 64 | 324 | 12.0 | 16.0 | 0.00 | 0.00 | 0.00 | 55 | 1012.2 |
| 20260508144048 | 64 | 341 | 10.0 | 15.0 | 0.00 | 0.00 | 0.00 | 55 | 1012.2 |
| 20260508143548 | 63 | 4 | 9.0 | 16.0 | 0.00 | 0.00 | 0.00 | 57 | 1012.1 |
| 20260508143058 | 63 | 353 | 10.0 | 16.0 | 0.00 | 0.00 | 0.00 | 58 | 1012.2 |
| 20260508142548 | 62 | 1 | 9.0 | 15.0 | 0.00 | 0.00 | 0.00 | 58 | 1012.0 |
| 20260508142048 | 61 | 11 | 6.0 | 9.0 | 0.00 | 0.00 | 0.00 | 61 | 1012.1 |
| 20260508141601 | 60 | 337 | 4.0 | 9.0 | 0.00 | 0.00 | 0.00 | 61 | 1012.1 |
| 20260508141047 | 59 | 336 | 5.0 | 9.0 | 0.00 | 0.00 | 0.00 | 61 | 1012.1 |
| 20260508140548 | 59 | 337 | 4.0 | 8.0 | 0.00 | 0.00 | 0.00 | 62 | 1012.0 |
| 20260508140057 | 58 | 343 | 6.0 | 9.0 | 0.00 | 0.00 | 0.00 | 61 | 1011.9 |
| 20260508135548 | 58 | 344 | 7.0 | 9.0 | 0.00 | 0.00 | 0.00 | 61 | 1011.8 |
| 20260508135048 | 57 | 2 | 5.0 | 8.0 | 0.00 | 0.00 | 0.00 | 62 | 1011.6 |
| 20260508134555 | 56 | 332 | 3.0 | 7.0 | 0.00 | 0.00 | 0.00 | 66 | 1011.7 |
| 20260508134047 | 54 | 326 | 2.0 | 4.0 | 0.00 | 0.00 | 0.00 | 69 | 1011.7 |
| 20260508133547 | 53 | 289 | 1.0 | 4.0 | 0.00 | 0.00 | 0.00 | 70 | 1011.5 |
| 20260508133055 | 53 | 0 | 0.0 | 2.0 | 0.00 | 0.00 | 0.00 | 70 | 1011.4 |
| 20260508132548 | 52 | 0 | 0.0 | 4.0 | 0.00 | 0.00 | 0.00 | 70 | 1011.4 |
| 20260508132048 | 51 | 0 | 1.0 | 4.0 | 0.00 | 0.00 | 0.00 | 71 | 1011.3 |
| 20260508131608 | 51 | 312 | 2.0 | 4.0 | 0.00 | 0.00 | 0.00 | 72 | 1011.4 |
| 20260508131048 | 50 | 283 | 1.0 | 2.0 | 0.00 | 0.00 | 0.00 | 73 | 1011.2 |
| 20260508130552 | 49 | 0 | 0.0 | 5.0 | 0.00 | 0.00 | 0.00 | 73 | 1011.2 |
| 20260508130055 | 48 | 285 | 1.0 | 5.0 | 0.00 | 0.00 | 0.00 | 74 | 1011.2 |
| 20260508125550 | 47 | 271 | 0.0 | 4.0 | 0.00 | 0.00 | 0.00 | 77 | 1011.2 |
| 20260508125047 | 47 | 0 | 0.0 | 2.0 | 0.00 | 0.00 | 0.00 | 76 | 1011.2 |
| 20260508124554 | 46 | 0 | 0.0 | 2.0 | 0.00 | 0.00 | 0.00 | 75 | 1010.9 |
| 20260508124048 | 46 | 0 | 0.0 | 1.0 | 0.00 | 0.00 | 0.00 | 75 | 1010.9 |
| 20260508123548 | 46 | 0 | 0.0 | 3.0 | 0.00 | 0.00 | 0.00 | 75 | 1010.9 |
| 20260508123116 | 46 | 0 | 0.0 | 3.0 | 0.00 | 0.00 | 0.00 | 75 | 1010.9 |
| 20260508122551 | 46 | 0 | 0.0 | 1.0 | 0.00 | 0.00 | 0.00 | 75 | 1010.9 |
| 20260508122048 | 46 | 0 | 0.0 | 1.0 | 0.00 | 0.00 | 0.00 | 74 | 1010.8 |
| 20260508121604 | 46 | 0 | 0.0 | 0.0 | 0.00 | 0.00 | 0.00 | 73 | 1010.6 |
| 20260508121047 | 46 | 0 | 0.0 | 0.0 | 0.00 | 0.00 | 0.00 | 73 | 1010.6 |
| 20260508120546 | 46 | 0 | 0.0 | 0.0 | 0.00 | 0.00 | 0.00 | 73 | 1010.8 |
| 20260508120107 | 46 | 0 | 0.0 | 0.0 | 0.00 | 0.00 | 0.00 | 73 | 1010.7 |
| 20260508115545 | 46 | 0 | 0.0 | 1.0 | 0.00 | 0.01 | 0.00 | 73 | 1010.4 |
| 20260508115049 | 46 | 0 | 0.0 | 1.0 | 0.00 | 0.01 | 0.00 | 72 | 1010.3 |
| 20260508114602 | 46 | 0 | 0.0 | 1.0 | 0.00 | 0.01 | 0.00 | 72 | 1010.4 |
| 20260508114049 | 46 | 0 | 0.0 | 0.0 | 0.00 | 0.01 | 0.00 | 72 | 1010.6 |
| 20260508113548 | 46 | 0 | 0.0 | 0.0 | 0.00 | 0.01 | 0.00 | 72 | 1010.5 |
| 20260508113106 | 46 | 0 | 0.0 | 0.0 | 0.00 | 0.01 | 0.00 | 73 | 1010.7 |
| 20260508112545 | 46 | 0 | 0.0 | 0.0 | 0.00 | 0.01 | 0.00 | 74 | 1010.6 |
| 20260508112046 | 45 | 0 | 0.0 | 0.0 | 0.00 | 0.01 | 0.00 | 74 | 1010.7 |
| 20260508111551 | 45 | 0 | 0.0 | 0.0 | 0.00 | 0.01 | 0.00 | 73 | 1010.6 |
| 20260508111049 | 46 | 0 | 0.0 | 0.0 | 0.00 | 0.01 | 0.00 | 72 | 1010.6 |
| 20260508110545 | 46 | 0 | 0.0 | 0.0 | 0.00 | 0.01 | 0.00 | 72 | 1010.7 |
| 20260508110107 | 46 | 0 | 0.0 | 0.0 | 0.00 | 0.01 | 0.00 | 70 | 1010.7 |
| 20260508105551 | 47 | 0 | 0.0 | 0.0 | 0.00 | 0.01 | 0.00 | 69 | 1010.8 |
| 20260508105048 | 48 | 0 | 0.0 | 2.0 | 0.00 | 0.01 | 0.00 | 68 | 1011.0 |
| 20260508104557 | 48 | 0 | 0.0 | 2.0 | 0.00 | 0.01 | 0.00 | 68 | 1011.2 |
| 20260508104049 | 48 | 0 | 1.0 | 5.0 | 0.00 | 0.01 | 0.00 | 69 | 1011.6 |
| 20260508103548 | 49 | 294 | 2.0 | 7.0 | 0.00 | 0.01 | 0.00 | 69 | 1011.6 |
| 20260508103101 | 49 | 307 | 3.0 | 7.0 | 0.00 | 0.01 | 0.00 | 69 | 1011.4 |
| 20260508102548 | 49 | 312 | 4.0 | 6.0 | 0.00 | 0.01 | 0.00 | 70 | 1011.8 |
| 20260508102046 | 49 | 292 | 4.0 | 6.0 | 0.00 | 0.01 | 0.00 | 70 | 1011.4 |
| 20260508101555 | 49 | 269 | 4.0 | 9.0 | 0.00 | 0.01 | 0.00 | 69 | 1011.4 |
| 20260508101047 | 49 | 311 | 4.0 | 17.0 | 0.00 | 0.01 | 0.00 | 69 | 1011.6 |
| 20260508100546 | 50 | 328 | 6.0 | 17.0 | 0.00 | 0.01 | 0.00 | 68 | 1011.5 |
| 20260508100055 | 50 | 308 | 11.0 | 17.0 | 0.00 | 0.01 | 0.00 | 67 | 1011.2 |
| 20260508095549 | 50 | 229 | 7.0 | 15.0 | 0.00 | 0.01 | 0.00 | 67 | 1010.4 |
| 20260508095050 | 51 | 306 | 10.0 | 15.0 | 0.00 | 0.01 | 0.00 | 65 | 1011.0 |
| 20260508094551 | 51 | 214 | 7.0 | 14.0 | 0.00 | 0.01 | 0.00 | 66 | 1010.5 |
| 20260508094050 | 52 | 195 | 7.0 | 14.0 | 0.00 | 0.01 | 0.00 | 65 | 1010.2 |
| 20260508093550 | 52 | 177 | 8.0 | 13.0 | 0.00 | 0.01 | 0.00 | 65 | 1010.1 |
| 20260508093104 | 52 | 198 | 8.0 | 12.0 | 0.00 | 0.01 | 0.00 | 64 | 1010.1 |
| 20260508092548 | 52 | 197 | 8.0 | 12.0 | 0.00 | 0.01 | 0.00 | 63 | 1010.1 |
| 20260508092046 | 52 | 171 | 8.0 | 12.0 | 0.00 | 0.01 | 0.00 | 63 | 1010.0 |
| 20260508091555 | 52 | 193 | 7.0 | 12.0 | 0.00 | 0.01 | 0.00 | 62 | 1010.2 |
| 20260508091048 | 53 | 218 | 8.0 | 12.0 | 0.00 | 0.01 | 0.00 | 62 | 1010.2 |
| 20260508090548 | 53 | 196 | 8.0 | 11.0 | 0.00 | 0.01 | 0.00 | 61 | 1010.2 |
| 20260508090058 | 53 | 188 | 7.0 | 13.0 | 0.00 | 0.01 | 0.00 | 61 | 1010.3 |
| 20260508085545 | 53 | 155 | 8.0 | 13.0 | 0.00 | 0.01 | 0.00 | 61 | 1010.3 |
| 20260508085045 | 53 | 197 | 8.0 | 14.0 | 0.00 | 0.01 | 0.00 | 60 | 1010.3 |
| 20260508084557 | 52 | 175 | 9.0 | 14.0 | 0.00 | 0.01 | 0.00 | 60 | 1010.3 |
| 20260508084046 | 52 | 184 | 10.0 | 14.0 | 0.00 | 0.01 | 0.00 | 59 | 1010.3 |
| 20260508083549 | 52 | 195 | 9.0 | 12.0 | 0.00 | 0.01 | 0.00 | 59 | 1010.3 |
| 20260508083057 | 52 | 187 | 8.0 | 12.0 | 0.00 | 0.01 | 0.00 | 59 | 1010.3 |
| 20260508082545 | 52 | 175 | 8.0 | 12.0 | 0.00 | 0.01 | 0.00 | 58 | 1010.4 |
| 20260508082047 | 52 | 185 | 8.0 | 12.0 | 0.00 | 0.01 | 0.00 | 58 | 1010.4 |
| 20260508081610 | 53 | 169 | 7.0 | 11.0 | 0.00 | 0.01 | 0.00 | 57 | 1010.5 |
| 20260508081048 | 53 | 165 | 7.0 | 11.0 | 0.00 | 0.01 | 0.00 | 57 | 1010.4 |
| 20260508080547 | 53 | 158 | 8.0 | 13.0 | 0.00 | 0.01 | 0.00 | 56 | 1010.4 |
| 20260508080054 | 53 | 198 | 8.0 | 13.0 | 0.00 | 0.01 | 0.00 | 56 | 1010.5 |
| 20260508075549 | 53 | 174 | 9.0 | 13.0 | 0.00 | 0.01 | 0.00 | 56 | 1010.5 |
| 20260508075047 | 53 | 144 | 8.0 | 11.0 | 0.00 | 0.01 | 0.00 | 56 | 1010.6 |
| 20260508074551 | 53 | 194 | 9.0 | 13.0 | 0.00 | 0.01 | 0.00 | 56 | 1010.7 |
| 20260508074047 | 53 | 173 | 9.0 | 13.0 | 0.00 | 0.01 | 0.00 | 56 | 1010.8 |
| 20260508073547 | 53 | 164 | 9.0 | 13.0 | 0.00 | 0.01 | 0.00 | 55 | 1010.8 |
| 20260508073050 | 53 | 172 | 9.0 | 13.0 | 0.00 | 0.01 | 0.00 | 55 | 1010.8 |
| 20260508072546 | 53 | 156 | 9.0 | 13.0 | 0.00 | 0.01 | 0.00 | 54 | 1011.0 |
| 20260508072046 | 53 | 179 | 9.0 | 13.0 | 0.00 | 0.01 | 0.00 | 54 | 1011.0 |
| 20260508071549 | 53 | 174 | 8.0 | 13.0 | 0.00 | 0.01 | 0.00 | 54 | 1011.0 |
| 20260508071045 | 53 | 170 | 9.0 | 11.0 | 0.00 | 0.01 | 0.00 | 55 | 1011.0 |
| 20260508070548 | 53 | 171 | 7.0 | 10.0 | 0.00 | 0.01 | 0.00 | 55 | 1011.1 |
| 20260508070053 | 53 | 166 | 7.0 | 9.0 | 0.00 | 0.01 | 0.00 | 54 | 1011.1 |
| 20260508065550 | 54 | 151 | 6.0 | 9.0 | 0.00 | 0.01 | 0.00 | 53 | 1011.1 |
| 20260508065048 | 54 | 170 | 6.0 | 10.0 | 0.00 | 0.01 | 0.00 | 51 | 1011.1 |
| 20260508064555 | 55 | 199 | 6.0 | 12.0 | 0.00 | 0.01 | 0.00 | 51 | 1011.1 |
| 20260508064048 | 55 | 197 | 8.0 | 12.0 | 0.00 | 0.01 | 0.00 | 51 | 1011.2 |
| 20260508063548 | 55 | 184 | 7.0 | 11.0 | 0.00 | 0.01 | 0.00 | 51 | 1011.2 |
| 20260508063101 | 55 | 198 | 8.0 | 11.0 | 0.00 | 0.01 | 0.00 | 51 | 1011.1 |
| 20260508062551 | 55 | 179 | 7.0 | 10.0 | 0.00 | 0.01 | 0.00 | 51 | 1011.2 |
| 20260508062046 | 55 | 206 | 6.0 | 10.0 | 0.00 | 0.01 | 0.00 | 50 | 1011.2 |
| 20260508061549 | 55 | 200 | 7.0 | 10.0 | 0.00 | 0.01 | 0.00 | 50 | 1011.3 |
| 20260508061046 | 56 | 191 | 6.0 | 10.0 | 0.00 | 0.01 | 0.00 | 50 | 1011.4 |
| 20260508060545 | 56 | 198 | 6.0 | 10.0 | 0.00 | 0.01 | 0.00 | 50 | 1011.3 |
| 20260508060048 | 56 | 192 | 7.0 | 10.0 | 0.00 | 0.01 | 0.00 | 50 | 1011.4 |
| 20260508055547 | 56 | 195 | 7.0 | 10.0 | 0.00 | 0.01 | 0.00 | 49 | 1011.3 |
| 20260508055045 | 56 | 195 | 8.0 | 10.0 | 0.00 | 0.01 | 0.00 | 49 | 1011.3 |
| 20260508054552 | 56 | 202 | 7.0 | 10.0 | 0.00 | 0.01 | 0.00 | 49 | 1011.4 |
| 20260508054047 | 56 | 189 | 7.0 | 11.0 | 0.00 | 0.01 | 0.00 | 49 | 1011.4 |
| 20260508053548 | 56 | 178 | 7.0 | 11.0 | 0.00 | 0.01 | 0.00 | 49 | 1011.5 |
| 20260508053104 | 56 | 217 | 7.0 | 10.0 | 0.00 | 0.01 | 0.00 | 49 | 1011.6 |
| 20260508052548 | 56 | 191 | 7.0 | 9.0 | 0.00 | 0.01 | 0.00 | 49 | 1011.6 |
| 20260508052048 | 57 | 167 | 7.0 | 12.0 | 0.00 | 0.01 | 0.00 | 48 | 1011.7 |
| 20260508051556 | 57 | 192 | 7.0 | 12.0 | 0.00 | 0.01 | 0.00 | 48 | 1011.7 |
| 20260508051050 | 57 | 198 | 8.0 | 12.0 | 0.00 | 0.01 | 0.00 | 48 | 1011.7 |
| 20260508050546 | 57 | 180 | 8.0 | 12.0 | 0.00 | 0.01 | 0.00 | 48 | 1011.7 |
| 20260508050058 | 57 | 208 | 8.0 | 11.0 | 0.00 | 0.01 | 0.00 | 48 | 1011.7 |
| 20260508045545 | 57 | 171 | 8.0 | 11.0 | 0.00 | 0.01 | 0.01 | 49 | 1011.8 |
| 20260508045045 | 57 | 191 | 8.0 | 11.0 | 0.00 | 0.01 | 0.01 | 49 | 1011.9 |
| 20260508044551 | 57 | 205 | 8.0 | 11.0 | 0.00 | 0.01 | 0.01 | 49 | 1011.8 |
| 20260508044048 | 57 | 172 | 8.0 | 11.0 | 0.00 | 0.01 | 0.01 | 49 | 1011.9 |
| 20260508043548 | 57 | 191 | 8.0 | 11.0 | 0.00 | 0.01 | 0.01 | 48 | 1011.9 |
| 20260508043059 | 57 | 193 | 8.0 | 11.0 | 0.00 | 0.01 | 0.01 | 49 | 1012.0 |
| 20260508042548 | 57 | 199 | 8.0 | 11.0 | 0.00 | 0.01 | 0.01 | 50 | 1012.0 |
| 20260508042048 | 56 | 195 | 8.0 | 11.0 | 0.00 | 0.01 | 0.01 | 51 | 1012.1 |
| 20260508041553 | 55 | 180 | 7.0 | 9.0 | 0.00 | 0.01 | 0.01 | 52 | 1012.2 |
| 20260508041049 | 55 | 214 | 6.0 | 9.0 | 0.00 | 0.01 | 0.01 | 52 | 1012.2 |
| 20260508040548 | 55 | 165 | 6.0 | 9.0 | 0.00 | 0.01 | 0.01 | 52 | 1012.2 |
| 20260508040053 | 55 | 196 | 6.0 | 8.0 | 0.00 | 0.01 | 0.01 | 52 | 1012.2 |
| 20260508035547 | 55 | 169 | 5.0 | 7.0 | 0.00 | 0.01 | 0.01 | 52 | 1012.2 |
| 20260508035046 | 55 | 191 | 4.0 | 6.0 | 0.00 | 0.01 | 0.01 | 51 | 1012.2 |
| 20260508034600 | 55 | 168 | 4.0 | 7.0 | 0.00 | 0.01 | 0.01 | 51 | 1012.2 |
| 20260508034045 | 54 | 156 | 4.0 | 8.0 | 0.00 | 0.01 | 0.01 | 51 | 1012.2 |
| 20260508033548 | 54 | 173 | 5.0 | 8.0 | 0.00 | 0.01 | 0.01 | 52 | 1012.2 |
| 20260508033054 | 53 | 156 | 6.0 | 8.0 | 0.00 | 0.01 | 0.01 | 53 | 1012.2 |
| 20260508032546 | 52 | 170 | 0.0 | 6.0 | 0.00 | 0.01 | 0.01 | 54 | 1012.2 |
| 20260508032047 | 51 | 0 | 0.0 | 0.0 | 0.00 | 0.01 | 0.01 | 54 | 1012.2 |
| 20260508031559 | 51 | 0 | 0.0 | 0.0 | 0.00 | 0.01 | 0.01 | 55 | 1012.2 |
| 20260508031048 | 51 | 0 | 0.0 | 0.0 | 0.00 | 0.01 | 0.01 | 54 | 1012.1 |
| 20260508030549 | 52 | 0 | 0.0 | 0.0 | 0.00 | 0.01 | 0.01 | 54 | 1012.0 |
| 20260508030054 | 52 | 0 | 0.0 | 0.0 | 0.00 | 0.01 | 0.01 | 54 | 1011.9 |
| 20260508025548 | 52 | 0 | 0.0 | 0.0 | 0.00 | 0.01 | 0.01 | 53 | 1011.9 |
| 20260508025053 | 53 | 0 | 0.0 | 0.0 | 0.00 | 0.01 | 0.01 | 53 | 1011.9 |
| 20260508024553 | 53 | 0 | 0.0 | 0.0 | 0.00 | 0.01 | 0.01 | 52 | 1011.8 |
| 20260508024048 | 53 | 0 | 0.0 | 0.0 | 0.00 | 0.01 | 0.01 | 52 | 1011.7 |
| 20260508023545 | 53 | 0 | 0.0 | 0.0 | 0.00 | 0.01 | 0.01 | 52 | 1011.7 |
| 20260508023056 | 53 | 0 | 0.0 | 0.0 | 0.00 | 0.01 | 0.01 | 52 | 1011.7 |
| 20260508022546 | 53 | 0 | 0.0 | 0.0 | 0.00 | 0.01 | 0.01 | 51 | 1011.6 |
| 20260508022049 | 54 | 0 | 0.0 | 0.0 | 0.00 | 0.01 | 0.01 | 49 | 1011.5 |
| 20260508021602 | 55 | 0 | 0.0 | 0.0 | 0.00 | 0.01 | 0.01 | 48 | 1011.6 |
| 20260508021048 | 56 | 0 | 0.0 | 0.0 | 0.00 | 0.01 | 0.01 | 46 | 1011.6 |
| 20260508020548 | 57 | 0 | 0.0 | 4.0 | 0.00 | 0.01 | 0.01 | 45 | 1011.6 |
| 20260508015548 | 60 | 152 | 4.0 | 5.0 | 0.00 | 0.01 | 0.01 | 42 | 1011.7 |
| 20260508015048 | 61 | 156 | 4.0 | 5.0 | 0.00 | 0.01 | 0.01 | 40 | 1011.6 |
| 20260508014557 | 62 | 148 | 4.0 | 5.0 | 0.00 | 0.01 | 0.01 | 38 | 1011.6 |
| 20260508014047 | 64 | 0 | 0.0 | 1.0 | 0.00 | 0.01 | 0.01 | 36 | 1011.5 |
| 20260508013546 | 66 | 0 | 0.0 | 0.0 | 0.00 | 0.01 | 0.01 | 34 | 1011.4 |
| 20260508013057 | 68 | 0 | 0.0 | 0.0 | 0.00 | 0.01 | 0.01 | 31 | 1011.4 |
| 20260508012546 | 70 | 0 | 0.0 | 5.0 | 0.00 | 0.01 | 0.01 | 29 | 1011.4 |
| 20260508012049 | 71 | 0 | 0.0 | 6.0 | 0.00 | 0.01 | 0.01 | 28 | 1011.3 |
| 20260508011556 | 73 | 0 | 3.0 | 6.0 | 0.00 | 0.01 | 0.01 | 27 | 1011.3 |
| 20260508011047 | 74 | 186 | 4.0 | 7.0 | 0.00 | 0.01 | 0.01 | 25 | 1011.2 |
| 20260508010547 | 76 | 164 | 4.0 | 7.0 | 0.00 | 0.01 | 0.01 | 23 | 1011.2 |
| 20260508010052 | 77 | 195 | 0.0 | 6.0 | 0.00 | 0.01 | 0.01 | 22 | 1011.1 |
| 20260508005551 | 78 | 0 | 0.0 | 0.0 | 0.00 | 0.01 | 0.01 | 20 | 1011.1 |
| 20260508005050 | 78 | 0 | 0.0 | 0.0 | 0.00 | 0.01 | 0.01 | 21 | 1011.1 |
| 20260508004548 | 77 | 0 | 0.0 | 0.0 | 0.00 | 0.01 | 0.01 | 20 | 1010.9 |
| 20260508004052 | 77 | 0 | 0.0 | 0.0 | 0.00 | 0.01 | 0.01 | 19 | 1010.9 |
| 20260508003548 | 77 | 0 | 0.0 | 5.0 | 0.00 | 0.01 | 0.01 | 20 | 1011.0 |
| 20260508003049 | 77 | 0 | 0.0 | 7.0 | 0.00 | 0.01 | 0.01 | 20 | 1011.1 |
| 20260508002548 | 77 | 274 | 4.0 | 7.0 | 0.00 | 0.01 | 0.01 | 19 | 1011.1 |
| 20260508002047 | 77 | 274 | 5.0 | 9.0 | 0.00 | 0.01 | 0.01 | 19 | 1011.1 |
| 20260508001611 | 77 | 0 | 3.0 | 9.0 | 0.00 | 0.01 | 0.01 | 19 | 1011.0 |
| 20260508001053 | 77 | 297 | 6.0 | 10.0 | 0.00 | 0.01 | 0.01 | 20 | 1011.0 |
| 20260508000546 | 77 | 278 | 7.0 | 10.0 | 0.00 | 0.01 | 0.01 | 19 | 1011.1 |
| 20260508000051 | 78 | 272 | 1.0 | 10.0 | 0.00 | 0.01 | 0.01 | 20 | 1010.9 |
| 20260507235548 | 77 | 277 | 7.0 | 10.0 | 0.00 | 0.01 | 0.01 | 18 | 1011.0 |
| 20260507235045 | 78 | 0 | 1.0 | 8.0 | 0.00 | 0.01 | 0.01 | 18 | 1011.0 |
| 20260507234551 | 78 | 0 | 0.0 | 8.0 | 0.00 | 0.01 | 0.01 | 19 | 1011.1 |
| 20260507234105 | 77 | 302 | 2.0 | 8.0 | 0.00 | 0.01 | 0.01 | 18 | 1011.0 |
| 20260507233548 | 77 | 288 | 5.0 | 12.0 | 0.00 | 0.01 | 0.01 | 18 | 1011.0 |
| 20260507233050 | 77 | 243 | 7.0 | 12.0 | 0.00 | 0.01 | 0.01 | 18 | 1011.1 |
| 20260507232546 | 77 | 286 | 6.0 | 12.0 | 0.00 | 0.01 | 0.01 | 19 | 1011.2 |
| 20260507232046 | 78 | 259 | 7.0 | 12.0 | 0.00 | 0.01 | 0.01 | 19 | 1011.2 |
| 20260507231555 | 78 | 256 | 3.0 | 11.0 | 0.00 | 0.01 | 0.01 | 18 | 1011.2 |
| 20260507231047 | 78 | 240 | 4.0 | 9.0 | 0.00 | 0.01 | 0.01 | 19 | 1011.1 |
| 20260507230549 | 78 | 250 | 4.0 | 10.0 | 0.00 | 0.01 | 0.01 | 19 | 1011.2 |
| 20260507230054 | 77 | 0 | 3.0 | 11.0 | 0.00 | 0.01 | 0.01 | 19 | 1011.3 |
| 20260507225549 | 77 | 301 | 7.0 | 12.0 | 0.00 | 0.01 | 0.01 | 19 | 1011.3 |
| 20260507225046 | 77 | 291 | 8.0 | 12.0 | 0.00 | 0.01 | 0.01 | 18 | 1011.3 |
| 20260507224554 | 78 | 293 | 6.0 | 10.0 | 0.00 | 0.01 | 0.01 | 19 | 1011.5 |
| 20260507224047 | 77 | 0 | 0.0 | 6.0 | 0.00 | 0.01 | 0.01 | 20 | 1011.4 |
| 20260507223548 | 77 | 0 | 0.0 | 12.0 | 0.00 | 0.01 | 0.01 | 19 | 1011.6 |
| 20260507223055 | 77 | 302 | 4.0 | 14.0 | 0.00 | 0.01 | 0.01 | 18 | 1011.6 |
| 20260507222547 | 77 | 301 | 8.0 | 14.0 | 0.00 | 0.01 | 0.01 | 20 | 1011.6 |
| 20260507222049 | 77 | 318 | 6.0 | 12.0 | 0.00 | 0.01 | 0.01 | 20 | 1011.5 |
| 20260507221552 | 77 | 317 | 8.0 | 11.0 | 0.00 | 0.01 | 0.01 | 20 | 1011.6 |
| 20260507221047 | 77 | 302 | 1.0 | 7.0 | 0.00 | 0.01 | 0.01 | 19 | 1011.6 |
| 20260507220552 | 77 | 0 | 1.0 | 15.0 | 0.00 | 0.01 | 0.01 | 19 | 1011.7 |
| 20260507220052 | 77 | 270 | 9.0 | 15.0 | 0.00 | 0.01 | 0.01 | 20 | 1011.8 |
| 20260507215546 | 77 | 245 | 11.0 | 15.0 | 0.00 | 0.01 | 0.01 | 20 | 1011.7 |
| 20260507215048 | 77 | 318 | 7.0 | 13.0 | 0.00 | 0.01 | 0.01 | 21 | 1011.7 |
| 20260507214554 | 77 | 0 | 5.0 | 13.0 | 0.00 | 0.01 | 0.01 | 20 | 1011.7 |
| 20260507214045 | 77 | 288 | 8.0 | 13.0 | 0.00 | 0.01 | 0.01 | 20 | 1011.9 |
| 20260507213552 | 77 | 264 | 4.0 | 15.0 | 0.00 | 0.01 | 0.01 | 20 | 1012.0 |
| 20260507213054 | 76 | 276 | 7.0 | 15.0 | 0.00 | 0.01 | 0.01 | 20 | 1012.1 |
| 20260507212545 | 76 | 249 | 4.0 | 14.0 | 0.00 | 0.01 | 0.01 | 20 | 1012.2 |
| 20260507212045 | 76 | 297 | 6.0 | 11.0 | 0.00 | 0.01 | 0.01 | 20 | 1012.3 |
| 20260507211550 | 76 | 248 | 6.0 | 14.0 | 0.00 | 0.01 | 0.01 | 20 | 1012.4 |
| 20260507211049 | 76 | 273 | 6.0 | 15.0 | 0.00 | 0.01 | 0.01 | 20 | 1012.5 |
| 20260507210548 | 76 | 286 | 10.0 | 15.0 | 0.00 | 0.01 | 0.01 | 20 | 1012.5 |
| 20260507210051 | 76 | 283 | 5.0 | 13.0 | 0.00 | 0.01 | 0.01 | 22 | 1012.6 |
| 20260507205548 | 76 | 0 | 6.0 | 15.0 | 0.00 | 0.01 | 0.01 | 22 | 1012.7 |
| 20260507205049 | 76 | 292 | 9.0 | 16.0 | 0.00 | 0.01 | 0.01 | 22 | 1012.8 |
| 20260507204559 | 76 | 266 | 11.0 | 16.0 | 0.00 | 0.01 | 0.01 | 21 | 1012.9 |
| 20260507204046 | 76 | 248 | 6.0 | 15.0 | 0.00 | 0.01 | 0.01 | 21 | 1012.9 |
| 20260507203548 | 76 | 259 | 10.0 | 15.0 | 0.00 | 0.01 | 0.01 | 23 | 1013.0 |
| 20260507203052 | 75 | 274 | 4.0 | 15.0 | 0.00 | 0.01 | 0.01 | 22 | 1013.1 |
| 20260507202546 | 75 | 328 | 8.0 | 14.0 | 0.00 | 0.01 | 0.01 | 22 | 1013.1 |
| 20260507202049 | 75 | 294 | 6.0 | 14.0 | 0.00 | 0.01 | 0.01 | 21 | 1013.2 |
| 20260507201558 | 75 | 278 | 9.0 | 17.0 | 0.00 | 0.01 | 0.01 | 22 | 1013.4 |
| 20260507201049 | 75 | 271 | 5.0 | 17.0 | 0.00 | 0.01 | 0.01 | 24 | 1013.5 |
| 20260507200549 | 75 | 266 | 6.0 | 15.0 | 0.00 | 0.01 | 0.01 | 24 | 1013.5 |
| 20260507200056 | 74 | 225 | 7.0 | 15.0 | 0.00 | 0.01 | 0.01 | 24 | 1013.6 |
| 20260507195549 | 74 | 251 | 7.0 | 16.0 | 0.00 | 0.01 | 0.01 | 25 | 1013.5 |
| 20260507195048 | 75 | 250 | 7.0 | 16.0 | 0.00 | 0.01 | 0.01 | 25 | 1013.7 |
| 20260507194554 | 74 | 297 | 6.0 | 14.0 | 0.00 | 0.01 | 0.01 | 25 | 1013.8 |
| 20260507194048 | 73 | 269 | 8.0 | 14.0 | 0.00 | 0.01 | 0.01 | 25 | 1013.9 |
| 20260507193546 | 73 | 269 | 6.0 | 13.0 | 0.00 | 0.01 | 0.01 | 23 | 1014.0 |
| 20260507193054 | 73 | 259 | 7.0 | 13.0 | 0.00 | 0.01 | 0.01 | 24 | 1014.0 |
| 20260507192548 | 73 | 270 | 9.0 | 13.0 | 0.00 | 0.01 | 0.01 | 26 | 1014.0 |
| 20260507192052 | 73 | 302 | 9.0 | 13.0 | 0.00 | 0.01 | 0.01 | 24 | 1013.9 |
| 20260507191556 | 73 | 271 | 7.0 | 15.0 | 0.00 | 0.01 | 0.01 | 27 | 1014.1 |
| 20260507191048 | 72 | 284 | 7.0 | 15.0 | 0.00 | 0.01 | 0.01 | 28 | 1014.1 |
| 20260507190549 | 72 | 248 | 10.0 | 15.0 | 0.00 | 0.01 | 0.01 | 26 | 1014.1 |
| 20260507190055 | 72 | 275 | 10.0 | 15.0 | 0.00 | 0.01 | 0.01 | 27 | 1014.3 |
| 20260507185548 | 72 | 271 | 8.0 | 14.0 | 0.00 | 0.02 | 0.01 | 31 | 1014.3 |
| 20260507185045 | 71 | 280 | 9.0 | 17.0 | 0.00 | 0.02 | 0.01 | 31 | 1014.4 |
| 20260507184603 | 71 | 276 | 10.0 | 17.0 | 0.00 | 0.02 | 0.01 | 31 | 1014.6 |
| 20260507184046 | 70 | 289 | 10.0 | 16.0 | 0.00 | 0.02 | 0.01 | 29 | 1014.7 |
| 20260507183548 | 70 | 285 | 9.0 | 15.0 | 0.00 | 0.02 | 0.01 | 33 | 1014.8 |
| 20260507183055 | 70 | 293 | 11.0 | 19.0 | 0.00 | 0.02 | 0.01 | 27 | 1014.8 |
| 20260507182547 | 70 | 253 | 10.0 | 19.0 | 0.00 | 0.02 | 0.01 | 33 | 1015.1 |
| 20260507182048 | 70 | 258 | 12.0 | 19.0 | 0.00 | 0.02 | 0.01 | 33 | 1015.2 |
| 20260507181603 | 69 | 265 | 10.0 | 19.0 | 0.00 | 0.02 | 0.01 | 35 | 1015.3 |
| 20260507181047 | 69 | 242 | 10.0 | 18.0 | 0.00 | 0.02 | 0.01 | 36 | 1015.3 |
| 20260507180546 | 68 | 264 | 12.0 | 18.0 | 0.00 | 0.02 | 0.01 | 36 | 1015.3 |
| 20260507180057 | 68 | 278 | 13.0 | 22.0 | 0.00 | 0.02 | 0.01 | 37 | 1015.3 |
| 20260507175551 | 68 | 238 | 10.0 | 22.0 | 0.00 | 0.03 | 0.01 | 38 | 1015.3 |
| 20260507175046 | 67 | 278 | 13.0 | 22.0 | 0.00 | 0.03 | 0.01 | 37 | 1015.4 |
| 20260507174557 | 67 | 271 | 13.0 | 20.0 | 0.00 | 0.03 | 0.01 | 37 | 1015.4 |
| 20260507174047 | 67 | 290 | 12.0 | 20.0 | 0.00 | 0.03 | 0.01 | 42 | 1015.4 |
| 20260507173545 | 66 | 275 | 12.0 | 21.0 | 0.00 | 0.03 | 0.01 | 41 | 1015.5 |
| 20260507173058 | 66 | 288 | 13.0 | 21.0 | 0.00 | 0.03 | 0.01 | 40 | 1015.6 |
| 20260507172549 | 66 | 290 | 13.0 | 21.0 | 0.00 | 0.03 | 0.01 | 40 | 1015.6 |